Howell, MI

1:02 PM EST on November 20, 2017 (GMT -0500)
Livingston County

Weather History for KOZW - January, 2012

Change the Weather History Date:

Saturday, January 7, 2012

  Actual Average Record
Temperature  
Mean Temperature 38 °F -  
Max Temperature 43 °F 31 °F 60 °F (2008)
Min Temperature 33 °F 18 °F -15 °F (2014)
Degree Days  
Heating Degree Days 27    
Moisture  
Dew Point 30 °F    
Average Humidity 72    
Maximum Humidity 87    
Minimum Humidity 59    
Precipitation  
Precipitation 0.00 in - - ()
Sea Level Pressure  
Sea Level Pressure 29.87 in    
Wind  
Wind Speed 8 mph (WNW)    
Max Wind Speed 15 mph    
Max Gust Speed 21 mph    
Visibility 10 miles    
Events      
Averages and records for this station are not official NWS values.
T = Trace of Precipitation, MM = Missing Value Source: NWS Daily Summary

Daily Weather History Graph

Daily Weather History Graph

Search for Another Location

Airport or City:

Trip Planner

Search our weather history database for the weather conditions in past years. The results will help you decide how hot, cold, wet, or windy it might be!

Date:

Astronomy

Jan. 07, 2012 Rise Set
Actual Time 8:05 AM EST 5:18 PM EST
Civil Twilight 7:34 AM EST 5:50 PM EST
Nautical Twilight 6:58 AM EST 6:25 PM EST
Astronomical Twilight 6:24 AM EST 6:59 PM EST
Moon 4:01 PM EST (1/7) 6:37 AM EST (1/7)
Length of Visible Light 10h 16m
Length of Day
9h 12m
Waxing Gibbous, 97% of the Moon is Illuminated
Jan 7
Waxing Gibbous
Jan 9
Full
Jan 16
Last Quarter
Jan 23
New
Jan 30
First Quarter

Hourly Weather History & Observations

Time (EST) Temp. Windchill Dew Point Humidity Pressure Visibility Wind Dir Wind Speed Gust Speed Precip Events Conditions
12:15 AM 41.0 °F 37.1 °F 34.7 °F 78% 29.66 in 10.0 mi West 5.8 mph - N/A   Scattered Clouds
12:35 AM 40.6 °F 36.0 °F 34.7 °F 79% 29.66 in 10.0 mi West 6.9 mph - N/A   Scattered Clouds
12:54 AM 40.1 °F 36.1 °F 34.5 °F 80% 29.65 in 10.0 mi West 5.8 mph - N/A   Clear
1:35 AM 40.6 °F 36.0 °F 34.2 °F 78% 29.66 in 10.0 mi West 6.9 mph - N/A   Mostly Cloudy
1:55 AM 39.6 °F 35.4 °F 33.6 °F 79% 29.66 in 10.0 mi West 5.8 mph - N/A   Mostly Cloudy
2:15 AM 40.1 °F 34.7 °F 33.4 °F 77% 29.67 in 10.0 mi West 8.1 mph - N/A   Scattered Clouds
2:35 AM 40.1 °F 34.7 °F 32.9 °F 75% 29.67 in 10.0 mi West 8.1 mph - N/A   Scattered Clouds
2:55 AM 40.1 °F 35.3 °F 32.5 °F 74% 29.67 in 10.0 mi WNW 6.9 mph - N/A   Mostly Cloudy
3:15 AM 40.1 °F 36.1 °F 32.2 °F 73% 29.68 in 10.0 mi West 5.8 mph - N/A   Overcast
3:34 AM 40.1 °F 35.3 °F 32.0 °F 73% 29.68 in 10.0 mi West 6.9 mph - N/A   Overcast
3:55 AM 40.1 °F 36.1 °F 32.0 °F 73% 29.69 in 10.0 mi West 5.8 mph - N/A   Overcast
4:34 AM 39.7 °F 34.3 °F 32.0 °F 74% 29.69 in 10.0 mi West 8.1 mph - N/A   Overcast
4:55 AM 39.2 °F 34.2 °F 32.0 °F 75% 29.70 in 10.0 mi West 6.9 mph - N/A   Overcast
5:14 AM 39.2 °F 33.6 °F 32.0 °F 75% 29.70 in 10.0 mi West 8.1 mph - N/A   Overcast
5:34 AM 38.8 °F 33.8 °F 31.5 °F 75% 29.71 in 10.0 mi West 6.9 mph - N/A   Overcast
5:55 AM 38.5 °F 33.4 °F 30.7 °F 74% 29.72 in 10.0 mi WNW 6.9 mph - N/A   Mostly Cloudy
6:15 AM 37.0 °F 31.0 °F 30.4 °F 77% 29.73 in 10.0 mi West 8.1 mph - N/A   Scattered Clouds
6:35 AM 36.5 °F 30.3 °F 30.7 °F 80% 29.74 in 10.0 mi West 8.1 mph - N/A   Clear
6:55 AM 35.6 °F 30.7 °F 30.2 °F 81% 29.76 in 10.0 mi West 5.8 mph - N/A   Clear
7:14 AM 34.9 °F 29.0 °F 30.2 °F 83% 29.77 in 10.0 mi West 6.9 mph - N/A   Clear
7:35 AM 34.7 °F 28.8 °F 30.2 °F 84% 29.78 in 10.0 mi West 6.9 mph - N/A   Clear
7:55 AM 33.8 °F 27.7 °F 30.0 °F 86% 29.78 in 10.0 mi West 6.9 mph - N/A   Clear
8:14 AM 33.4 °F 27.3 °F 29.8 °F 87% 29.80 in 10.0 mi West 6.9 mph - N/A   Clear
8:35 AM 34.2 °F 27.5 °F 30.2 °F 85% 29.80 in 10.0 mi West 8.1 mph - N/A   Clear
8:55 AM 35.2 °F 29.5 °F 30.9 °F 84% 29.82 in 10.0 mi West 6.9 mph - N/A   Clear
9:14 AM 36.5 °F 30.3 °F 31.1 °F 81% 29.83 in 10.0 mi West 8.1 mph - N/A   Clear
9:35 AM 37.6 °F 30.0 °F 31.6 °F 79% 29.84 in 10.0 mi West 11.5 mph - N/A   Clear
9:54 AM 38.3 °F 30.9 °F 31.8 °F 77% 29.85 in 10.0 mi West 11.5 mph - N/A   Clear
10:15 AM 39.4 °F 32.3 °F 31.8 °F 74% 29.86 in 10.0 mi West 11.5 mph - N/A   Clear
10:35 AM 40.3 °F 33.9 °F 31.6 °F 71% 29.87 in 10.0 mi West 10.4 mph - N/A   Clear
10:54 AM 41.0 °F 34.7 °F 31.3 °F 68% 29.87 in 10.0 mi WNW 10.4 mph - N/A   Clear
11:15 AM 41.5 °F 34.6 °F 31.5 °F 67% 29.88 in 10.0 mi WNW 12.7 mph - N/A   Clear
11:35 AM 42.1 °F 34.9 °F 31.1 °F 65% 29.89 in 10.0 mi West 13.8 mph 19.6 mph N/A   Scattered Clouds
11:54 AM 41.9 °F 34.6 °F 30.7 °F 65% 29.89 in 10.0 mi WNW 13.8 mph 19.6 mph N/A   Scattered Clouds
12:15 PM 40.8 °F 33.7 °F 30.2 °F 66% 29.89 in 10.0 mi WNW 12.7 mph 17.3 mph N/A   Scattered Clouds
12:35 PM 42.8 °F 36.2 °F 30.6 °F 62% 29.89 in 10.0 mi NW 12.7 mph 20.7 mph N/A   Scattered Clouds
12:54 PM 42.6 °F 35.2 °F 30.6 °F 62% 29.90 in 10.0 mi West 15.0 mph 19.6 mph N/A   Mostly Cloudy
1:15 PM 42.4 °F 35.3 °F 29.7 °F 61% 29.91 in 10.0 mi WNW 13.8 mph 20.7 mph N/A   Overcast
1:35 PM 43.2 °F 37.0 °F 29.8 °F 59% 29.91 in 10.0 mi WNW 11.5 mph - N/A   Overcast
1:54 PM 41.2 °F 34.5 °F 28.8 °F 61% 29.91 in 10.0 mi WNW 11.5 mph 16.1 mph N/A   Scattered Clouds
2:15 PM 41.9 °F 36.3 °F 29.1 °F 61% 29.92 in 10.0 mi NW 9.2 mph 17.3 mph N/A   Mostly Cloudy
2:35 PM 41.4 °F 34.7 °F 29.3 °F 62% 29.93 in 10.0 mi WNW 11.5 mph - N/A   Overcast
2:55 PM 41.0 °F 34.3 °F 29.7 °F 64% 29.95 in 10.0 mi NW 11.5 mph 16.1 mph N/A   Overcast
3:15 PM 41.0 °F 33.9 °F 27.9 °F 60% 29.95 in 10.0 mi WNW 12.7 mph 16.1 mph N/A   Overcast
3:34 PM 40.5 °F 34.1 °F 28.2 °F 62% 29.97 in 10.0 mi WNW 10.4 mph 17.3 mph N/A   Overcast
3:55 PM 40.5 °F 34.6 °F 28.8 °F 63% 29.98 in 10.0 mi WNW 9.2 mph - N/A   Overcast
4:15 PM 40.3 °F 34.4 °F 29.3 °F 65% 29.99 in 10.0 mi WNW 9.2 mph - N/A   Overcast
4:34 PM 40.1 °F 34.1 °F 28.6 °F 63% 30.00 in 10.0 mi WNW 9.2 mph - N/A   Overcast
4:55 PM 39.4 °F 33.2 °F 29.3 °F 67% 30.01 in 10.0 mi WNW 9.2 mph - N/A   Overcast
5:14 PM 38.8 °F 32.6 °F 29.1 °F 68% 30.02 in 10.0 mi WNW 9.2 mph 16.1 mph N/A   Overcast
5:35 PM 38.8 °F 32.6 °F 27.5 °F 64% 30.02 in 10.0 mi West 9.2 mph - N/A   Overcast
6:14 PM 38.3 °F 30.9 °F 27.0 °F 64% 30.04 in 10.0 mi WNW 11.5 mph - N/A   Overcast
6:35 PM 37.9 °F 30.9 °F 26.6 °F 64% 30.05 in 10.0 mi WNW 10.4 mph - N/A   Overcast
7:15 PM 37.0 °F 30.4 °F 27.3 °F 68% 30.07 in 10.0 mi NW 9.2 mph - N/A   Overcast
7:35 PM 36.9 °F 30.7 °F 27.5 °F 69% 30.08 in 10.0 mi NW 8.1 mph - N/A   Overcast
7:54 PM 36.1 °F 31.4 °F 27.5 °F 71% 30.09 in 10.0 mi NNW 5.8 mph - N/A   Overcast
8:15 PM 35.2 °F 29.5 °F 27.1 °F 72% 30.09 in 10.0 mi NNW 6.9 mph - N/A   Overcast
8:35 PM 34.9 °F 29.0 °F 27.0 °F 73% 30.10 in 10.0 mi NNW 6.9 mph - N/A   Overcast
8:55 PM 34.7 °F - 26.6 °F 72% 30.10 in 10.0 mi Calm Calm - N/A   Overcast
9:35 PM 34.2 °F 30.0 °F 27.0 °F 75% 30.12 in 10.0 mi NNW 4.6 mph - N/A   Overcast
9:55 PM 34.2 °F - 27.1 °F 75% 30.13 in 10.0 mi Calm Calm - N/A   Overcast
10:15 PM 34.0 °F - 27.3 °F 77% 30.14 in 10.0 mi Calm Calm - N/A   Overcast
10:35 PM 33.4 °F 30.4 °F 27.1 °F 78% 30.14 in 10.0 mi NW 3.5 mph - N/A   Overcast
10:55 PM 33.6 °F - 26.6 °F 75% 30.15 in 10.0 mi Calm Calm - N/A   Overcast
11:15 PM 33.4 °F - 26.4 °F 75% 30.15 in 10.0 mi Calm Calm - N/A   Overcast
11:34 PM 33.1 °F 28.7 °F 26.6 °F 77% 30.15 in 10.0 mi West 4.6 mph - N/A   Overcast
11:55 PM 32.7 °F 29.6 °F 27.0 °F 79% 30.16 in 10.0 mi West 3.5 mph - N/A   Overcast